Location: Feydey
(46.3431°N, 7.0106°E)
Time: 09:20:41
(UTC+00:00)

Cosmos 1725 Rocket - Pass Details

Date: 20 June 2021
Orbit: 962 x 990 km, 82.9° (Epoch: 04 August)

Event Time Altitude Azimuth Distance (km) Brightness Sun altitude
Rises 20:26:26 0° 355° (N) 3,660 7.9 -8.4°
Reaches altitude 10° 20:29:04 10° 1° (N) 2,709 7.1 -8.7°
Maximum altitude 20:35:01 47° 75° (ENE) 1,253 4.4 -9.4°
Enters shadow 20:40:30 12° 147° (SSE) 2,540 5.5 -10.0°
